Aérodrome :
LOGIN :

S'inscrire | Disclaimer

   EN    FR    IT 

 










Légende :    VFR   VFR Marginal   IFR   IFR Intensif   IFR Très Intensif
Visi : 
Plafond : 
>= 8 km
>= 3000ft
5 à 8 km
1000 à 3000 ft
1500m à 5 km
500 à 1000 ft
800 à 1500m
200 à 500 ft
< 800m
< 200 ft
Symboles :   Orages  Brouillard  Fortes neiges  Fortes précipitations  Vent > 20 kt
SIGMETs :   Divers  Orages  Givrage  Turbulence  Onde Orograph.  Cendres Volcan.







- Altitude de l'aérodrome : 49 ft
- Code IATA : SEN
- Voir les cartes d'approche


EGMC - Southend

DERNIER METAR :
  • 211050Z 36003KT 9000 FEW045 17/13 Q1015

METARs EXPIRÉS :
  • 211020Z VRB03KT 9000 FEW040 17/13 Q1016
  • 210950Z VRB04KT 9000 FEW040 16/12 Q1016
  • 210920Z VRB02KT 9000 FEW025 16/12 Q1016
  • 210850Z 01003KT 9000 FEW020 16/12 Q1016
  • 210820Z 35002KT 9000 NSC 15/12 Q1016

TAF AMD TAF EGMC
Valide du 21 à 11h jusqu'au 21 à 18h UTC


211101Z 2111/2118 02003KT 9000 FEW045
BECMG 2111/2113 9999
BECMG 2113/2116 08010KT
PROB30
TEMPO 2113/2118 6000 SHRA
Pas de NOTAMs connus pour ce terrain.



MET'MAP, la Météo Aéronautique d'un coup d'oeil ! - Copyright ORBIFLY Décembre 2007 - Disclaimer

ORBIFLY MET'MAP TEAM :

Programmation & Développement : Alexandra Zaïnal
Conception & Développement : Baudouin d'Aumeries
Co-Programmation & Développement : Marc-Olivier Méhu
Soutien technique & logistique : Manuel Goepfert

Contact : metmap@orbifly.com




SOURCES & CREDITS :

   NOAA